Wind_Speed
76 80 84 92 93 87 85 82 81 82 81 80 75 72 67 70 77 79 82 85 82 87 83 85 89 91 90 90 91 89 88 87 86 80 75 64 60 57 60 63 67 69 71 70 67 64 63
78 81 87 92 96 94 94 87 84 82 82 81 80 76 67 67 74 78 78 79 78 79 80 81 77 80 87 86 84 80 80 80 78 77 69 56 56 54 60 62 67 70 67 67 66 65 64
80 83 87 100 103 97 94 89 87 84 83 81 76 75 67 63 72 75 74 75 75 70 73 75 74 75 70 70 72 76 73 73 71 64 57 54 51 53 60 64 66 65 64 64 67 68 66
83 84 88 103 103 105 103 91 86 85 84 83 69 67 65 61 66 71 69 71 72 71 68 68 69 70 63 64 64 64 64 63 60 54 53 54 51 55 59 60 62 63 63 65 66 66 68
88 85 97 110 111 114 95 90 86 82 81 82 75 60 62 61 62 62 65 67 66 63 61 63 63 60 59 59 58 55 55 55 51 52 51 48 53 55 52 58 62 62 63 62 59 57 57
93 94 102 115 119 111 95 86 83 80 78 76 74 62 56 61 58 59 59 59 57 55 54 55 56 54 54 54 52 50 48 45 48 47 45 49 52 49 52 57 58 59 58 54 48 42 43
100 101 112 125 121 105 92 84 78 74 71 68 67 62 55 57 58 57 56 51 48 48 53 49 50 48 47 47 45 39 37 39 39 42 48 48 46 50 54 56 55 54 48 41 37 35 37
104 111 123 128 117 101 89 80 74 67 63 60 60 53 46 47 53 53 51 46 40 46 46 45 45 44 41 39 28 31 30 32 37 43 46 43 46 53 55 54 49 43 38 34 33 33 35
110 120 129 126 109 96 85 75 65 59 53 50 48 43 36 39 43 45 45 38 42 43 42 41 38 35 34 22 24 22 26 30 34 38 42 46 53 53 50 43 39 34 31 30 30 32 36
115 129 130 118 102 88 78 68 60 50 46 40 36 32 26 33 40 39 36 40 43 39 38 34 27 23 16 18 15 19 23 27 29 35 42 49 52 47 39 33 29 27 26 26 27 31 37
126 136 122 104 89 77 66 59 50 41 36 29 25 19 24 33 36 33 39 42 38 35 30 24 15 9 12 9 11 14 17 23 29 36 44 45 40 35 30 24 21 19 22 25 26 31 35
132 128 109 91 78 66 57 47 38 27 27 19 12 19 24 27 30 36 37 38 35 30 21 9 8 7 5 6 7 13 19 24 31 37 39 35 30 24 21 15 14 15 18 19 22 28 35
134 113 94 82 70 56 45 35 26 17 14 6 12 17 21 26 30 36 37 35 32 23 16 13 8 3 2 5 9 14 21 25 28 33 29 24 21 18 10 8 12 14 14 17 20 28 30
123 105 94 74 58 46 36 24 14 7 2 4 8 15 24 31 39 38 36 35 28 27 20 14 10 8 7 7 10 16 17 20 25 24 18 15 10 4 8 13 16 18 18 18 22 21 24
109 97 82 64 52 40 26 15 8 3 9 13 16 23 31 40 36 37 39 35 35 29 21 16 13 10 9 8 10 12 15 18 19 15 9 5 2 9 15 15 16 18 20 20 21 22 23
94 84 70 56 43 31 19 13 7 9 16 18 22 33 36 39 44 43 43 43 34 27 21 18 17 14 12 11 12 13 13 13 12 7 6 6 9 12 17 18 18 18 17 18 18 19 21
89 70 58 45 33 22 20 16 15 17 24 29 39 37 43 45 48 52 47 40 34 29 27 23 22 20 19 17 16 11 8 9 9 10 12 14 15 16 19 22 21 19 20 16 18 21 21
77 60 48 36 28 24 23 25 24 26 29 36 36 46 51 51 57 52 46 43 39 36 32 27 25 24 19 20 20 17 18 17 18 19 20 19 22 23 23 23 22 20 19 17 16 15 17
77 54 43 38 31 25 30 34 35 36 37 41 42 51 52 58 56 52 51 51 45 40 36 30 31 27 25 27 30 28 28 26 27 27 25 26 27 29 25 24 26 24 20 16 12 12 12
78 52 45 43 39 27 28 36 38 38 41 47 51 55 59 57 56 57 56 54 49 43 39 37 38 35 34 41 42 41 38 40 37 36 33 32 31 31 29 28 26 24 23 18 15 12 8
75 65 54 52 41 31 29 30 34 40 47 54 51 52 56 56 60 58 59 54 51 47 46 42 46 46 44 47 52 54 53 53 49 46 43 40 37 35 36 31 28 26 23 22 21 18 17
84 72 58 48 41 32 27 30 31 39 45 54 54 51 54 57 58 59 57 53 50 49 49 48 47 49 52 56 59 60 61 61 59 57 55 52 50 47 43 37 31 29 28 23 20 17 14
92 67 56 36 37 26 22 26 38 43 41 48 49 50 51 53 56 56 54 52 49 50 49 50 49 52 54 55 58 60 62 64 65 65 64 60 55 52 48 48 42 39 36 32 27 21 15
91 68 31 39 16 15 23 31 36 45 42 42 45 47 48 50 53 51 50 48 48 49 50 50 51 54 55 59 58 59 59 61 61 61 62 60 59 57 54 55 52 47 44 41 38 33 31
73 53 27 16 11 13 25 32 38 38 39 40 41 42 46 49 48 47 46 45 46 47 48 50 52 54 54 55 55 56 58 57 55 55 55 55 54 55 55 52 50 49 48 48 46 42 36
89 57 30 20 8 9 24 31 34 34 35 38 38 39 43 44 43 43 42 41 42 43 43 45 48 48 49 50 50 51 53 52 51 50 49 48 50 49 48 48 46 44 43 42 41 43 39
88 76 22 9 19 7 26 27 28 28 29 32 34 35 36 40 37 34 36 35 35 37 36 38 41 43 44 44 45 45 45 46 46 45 45 44 44 44 45 45 46 43 41 38 36 37 35
93 79 30 14 17 13 19 27 25 24 26 27 29 30 31 36 33 30 29 28 30 30 30 30 31 34 36 37 38 38 38 38 39 40 39 41 42 41 41 43 41 38 36 37 36 34 31
99 73 42 12 20 24 21 25 22 21 21 22 23 26 25 29 28 26 25 23 22 24 23 23 25 27 28 29 29 30 30 29 30 30 32 33 33 33 34 35 35 35 35 36 37 35 32
Wind_Direction
336 337 336 336 334 329 324 319 315 310 305 300 295 288 278 272 265 263 263 263 260 262 265 263 262 264 266 266 267 267 270 270 272 273 275 273 277 279 280 275 266 266 264 264 262 256 250
330 332 331 333 332 328 324 318 314 309 304 299 295 289 281 272 265 261 262 263 264 261 260 264 265 261 262 264 265 267 267 269 271 273 273 276 272 276 279 273 268 266 265 263 260 256 253
331 327 326 331 326 324 320 316 313 306 303 297 293 290 281 267 264 261 261 261 262 261 261 262 262 264 264 265 264 263 266 268 271 271 276 275 273 274 274 273 272 270 267 264 262 259 256
335 328 325 328 326 325 320 313 308 304 299 296 290 286 279 268 263 261 260 259 258 260 259 259 263 262 262 261 264 265 265 267 269 272 274 275 274 272 272 276 272 271 269 265 264 263 260
334 326 327 329 327 324 315 309 305 300 295 293 288 278 274 267 261 260 258 257 255 256 256 254 259 261 262 262 262 263 263 265 271 273 276 278 276 276 277 274 274 276 279 277 270 261 253
334 330 328 328 329 323 316 309 305 300 294 290 284 276 266 265 259 255 252 252 251 250 251 253 255 255 255 261 264 261 262 270 274 276 280 277 279 280 277 276 282 285 281 274 266 258 245
333 329 330 329 328 322 316 310 305 300 294 288 282 276 265 256 257 252 248 244 243 240 247 250 249 252 253 256 257 261 268 273 278 282 279 280 283 282 282 289 289 282 274 267 260 250 233
332 333 332 329 326 321 316 311 306 301 295 288 281 276 267 257 251 249 247 234 229 235 239 239 240 246 250 253 258 265 270 274 277 281 282 285 285 288 296 294 285 276 270 259 246 236 220
335 333 332 329 324 321 317 313 307 301 293 287 279 275 263 250 244 240 239 221 221 227 228 234 238 241 249 259 258 265 266 272 279 282 287 290 292 295 292 287 279 273 258 242 228 216 211
338 335 333 328 325 322 318 314 309 303 294 285 277 270 255 236 230 226 217 207 216 216 223 229 229 239 259 252 259 263 268 278 284 290 291 291 292 291 288 281 270 252 242 232 218 213 207
339 336 331 328 323 319 317 314 309 303 292 281 270 258 227 223 217 210 198 205 206 207 213 210 216 235 237 249 265 274 285 288 296 292 288 295 294 289 282 269 249 233 221 220 215 210 207
338 336 330 327 323 323 319 316 310 303 288 285 265 222 214 204 200 192 193 195 194 191 189 167 175 210 227 263 290 301 301 304 296 292 297 298 292 284 269 245 221 200 204 210 212 211 209
345 335 331 330 328 328 323 320 314 304 297 277 218 205 192 182 189 176 180 175 176 163 142 136 147 135 50 345 327 310 306 299 295 299 304 296 287 276 260 208 180 173 183 194 205 213 214
344 338 335 338 336 331 332 328 320 313 263 177 163 171 171 164 167 168 159 155 143 126 121 119 90 69 29 347 324 311 307 306 308 314 305 298 288 257 173 163 162 172 174 190 198 200 202
346 339 341 343 342 339 339 336 340 16 99 117 138 156 162 159 151 148 144 135 118 107 101 92 80 59 34 5 333 329 331 324 326 321 322 315 136 150 144 149 162 164 170 191 192 192 197
347 344 346 348 349 352 1 9 28 99 119 124 138 152 149 142 141 137 125 110 103 101 99 93 80 66 53 36 18 6 348 341 335 351 35 86 111 127 125 131 136 141 151 176 183 193 196
349 348 352 355 3 16 40 58 78 103 112 128 141 141 141 139 128 117 107 105 103 102 93 82 75 69 54 43 36 35 30 26 42 58 82 96 104 118 120 121 131 140 141 161 173 181 186
352 1 1 15 24 47 72 85 99 112 120 130 135 137 134 126 114 109 108 104 95 88 84 78 74 67 60 64 74 71 72 69 72 76 81 96 104 110 109 117 125 137 138 151 166 169 179
360 1 13 30 42 67 88 100 112 117 123 129 134 132 125 116 111 114 103 91 85 83 80 78 78 78 79 79 81 79 77 78 78 80 88 91 101 107 112 120 122 126 126 132 131 149 176
11 25 34 43 47 64 93 108 117 122 123 128 127 124 117 113 113 102 96 91 88 85 84 85 89 88 85 84 82 81 81 79 77 79 84 86 90 98 105 106 109 117 117 119 120 127 145
16 30 39 46 49 58 83 107 115 121 124 123 125 119 114 111 103 101 95 92 93 94 91 94 93 90 87 85 82 79 79 77 76 77 77 81 88 90 93 98 107 109 116 126 133 138 149
15 32 36 40 41 50 87 114 119 121 127 124 121 115 107 105 104 99 94 90 88 89 90 89 90 91 87 84 82 82 82 81 77 74 76 77 75 75 77 80 86 95 104 110 110 117 137
12 23 24 25 28 43 91 117 121 123 124 123 119 111 108 105 102 98 94 92 91 88 86 86 86 84 83 80 77 75 73 73 76 76 75 74 77 80 81 79 79 82 87 87 90 94 98
7 10 14 16 35 85 113 124 127 125 123 117 111 109 106 102 100 97 94 94 92 90 86 83 82 80 79 76 76 76 75 73 71 70 69 69 70 68 67 73 73 73 74 80 80 78 83
1 1 2 28 109 107 127 131 129 125 119 112 108 108 105 101 99 96 96 95 91 88 85 83 81 79 78 78 78 75 74 74 74 73 72 70 69 70 71 69 69 65 67 69 71 70 66
4 360 357 350 329 103 136 138 132 126 122 117 115 112 109 106 103 103 101 99 96 93 88 87 86 84 81 78 78 77 78 79 78 76 75 72 73 74 72 73 72 72 71 68 67 67 67
0 5 329 295 339 205 146 148 142 133 126 123 122 119 115 111 108 106 105 103 99 98 92 90 88 86 83 80 78 76 75 73 74 73 74 72 73 74 77 74 75 74 70 67 66 66 63
358 1 360 285 219 245 177 162 154 147 137 131 128 124 124 118 119 117 113 109 104 101 98 95 89 88 84 82 79 76 74 72 70 67 67 65 67 66 68 66 67 68 65 67 66 60 56
357 358 1 277 219 182 187 173 164 164 148 146 138 131 132 128 127 124 121 117 112 109 106 100 95 89 84 80 79 75 74 71 67 63 61 59 59 59 58 58 56 54 55 51 52 51 49
Height
10663 10653 10643 10631 10620 10609 10598 10588 10576 10564 10554 10546 10539 10533 10528 10523 10522 10524 10526 10531 10537 10539 10544 10549 10555 10554 10561 10566 10568 10570 10572 10573 10573 10574 10575 10576 10576 10573 10565 10563 10561 10563 10563 10563 10565 10573 10578
10651 10640 10628 10617 10604 10591 10577 10565 10553 10542 10532 10522 10513 10506 10502 10500 10496 10501 10503 10510 10514 10520 10526 10527 10533 10537 10539 10542 10549 10554 10554 10556 10555 10554 10556 10560 10558 10552 10551 10546 10545 10543 10545 10543 10546 10552 10556
10636 10623 10609 10599 10584 10570 10558 10542 10528 10515 10502 10495 10489 10481 10477 10477 10473 10478 10482 10489 10493 10501 10506 10509 10514 10516 10522 10526 10528 10531 10535 10538 10538 10538 10540 10539 10538 10536 10533 10529 10526 10523 10523 10523 10524 10527 10532
10620 10608 10596 10581 10564 10549 10531 10517 10505 10490 10474 10463 10462 10459 10452 10452 10451 10457 10463 10469 10476 10482 10488 10494 10498 10501 10503 10507 10511 10514 10517 10520 10522 10524 10524 10519 10520 10519 10515 10511 10506 10505 10504 10503 10505 10504 10504
10604 10590 10575 10557 10537 10520 10504 10488 10475 10462 10449 10436 10427 10435 10431 10427 10430 10436 10442 10451 10459 10466 10475 10478 10481 10486 10488 10492 10494 10500 10504 10506 10508 10507 10507 10505 10501 10499 10498 10490 10487 10485 10479 10477 10478 10480 10482
10586 10570 10553 10534 10510 10489 10469 10453 10441 10430 10421 10412 10398 10405 10408 10405 10409 10415 10422 10432 10444 10453 10458 10463 10466 10469 10473 10479 10486 10489 10493 10495 10492 10492 10492 10489 10485 10484 10480 10473 10469 10462 10457 10456 10457 10460 10463
10564 10545 10525 10502 10478 10455 10436 10422 10408 10397 10389 10382 10373 10375 10383 10386 10388 10396 10404 10417 10431 10439 10443 10449 10453 10457 10461 10468 10473 10480 10483 10481 10480 10477 10474 10473 10471 10466 10462 10456 10451 10444 10441 10441 10443 10447 10453
10543 10519 10496 10468 10441 10419 10400 10385 10374 10364 10357 10353 10348 10351 10360 10365 10370 10379 10390 10406 10418 10423 10429 10435 10440 10446 10454 10459 10466 10468 10471 10471 10469 10463 10458 10458 10455 10447 10442 10438 10432 10427 10427 10428 10433 10439 10446
10519 10495 10467 10437 10411 10388 10369 10355 10348 10339 10334 10331 10328 10330 10340 10345 10354 10366 10378 10394 10404 10409 10419 10426 10433 10441 10448 10454 10454 10461 10463 10461 10458 10452 10447 10442 10435 10432 10430 10424 10418 10416 10415 10419 10425 10431 10437
10495 10470 10439 10408 10382 10359 10344 10333 10324 10320 10314 10312 10312 10315 10324 10330 10339 10354 10369 10382 10390 10402 10411 10421 10431 10438 10444 10444 10449 10451 10452 10448 10447 10442 10435 10428 10423 10419 10416 10413 10409 10406 10407 10411 10418 10425 10434
10474 10444 10412 10383 10360 10341 10328 10316 10308 10304 10299 10298 10299 10306 10310 10317 10330 10346 10359 10370 10385 10396 10409 10419 10428 10435 10437 10441 10442 10440 10439 10439 10435 10430 10423 10415 10409 10406 10406 10404 10402 10402 10403 10405 10414 10423 10433
10451 10421 10387 10360 10339 10323 10311 10300 10293 10291 10288 10290 10294 10296 10303 10313 10328 10338 10352 10369 10383 10398 10410 10419 10425 10430 10433 10433 10433 10431 10430 10429 10425 10418 10411 10405 10400 10398 10397 10397 10396 10399 10401 10408 10415 10423 10431
10430 10391 10362 10339 10320 10307 10296 10289 10284 10282 10281 10285 10287 10292 10302 10312 10324 10337 10353 10372 10388 10401 10410 10417 10424 10426 10426 10426 10426 10425 10424 10421 10416 10408 10403 10397 10395 10390 10390 10391 10392 10396 10402 10408 10416 10422 10429
10403 10366 10341 10324 10308 10296 10288 10281 10278 10276 10277 10282 10287 10296 10304 10314 10326 10342 10362 10380 10393 10400 10409 10416 10419 10421 10422 10422 10421 10420 10416 10412 10405 10401 10396 10392 10391 10388 10387 10389 10390 10395 10402 10409 10414 10423 10433
10387 10355 10331 10315 10301 10291 10284 10279 10277 10278 10279 10286 10293 10301 10307 10319 10338 10356 10374 10383 10393 10402 10409 10414 10418 10418 10417 10417 10416 10414 10410 10405 10400 10396 10392 10388 10387 10387 10387 10388 10393 10398 10404 10411 10418 10428 10437
10379 10350 10329 10313 10300 10292 10286 10283 10283 10284 10286 10291 10298 10308 10322 10338 10353 10368 10378 10387 10397 10405 10411 10415 10416 10415 10415 10414 10412 10409 10405 10401 10399 10395 10390 10386 10385 10384 10387 10392 10396 10402 10408 10415 10422 10431 10442
10375 10353 10330 10316 10304 10297 10293 10292 10291 10292 10294 10301 10312 10327 10342 10355 10364 10374 10385 10395 10403 10409 10411 10414 10414 10415 10413 10413 10411 10409 10404 10401 10399 10394 10391 10389 10388 10386 10390 10395 10399 10405 10413 10418 10426 10435 10445
10379 10354 10337 10322 10312 10305 10303 10302 10303 10305 10310 10320 10332 10345 10357 10366 10372 10384 10395 10402 10407 10410 10413 10415 10417 10415 10416 10414 10412 10409 10405 10402 10400 10396 10394 10393 10393 10393 10393 10396 10403 10409 10415 10422 10429 10436 10445
10384 10361 10346 10331 10323 10319 10316 10314 10318 10324 10332 10342 10353 10361 10370 10376 10384 10394 10397 10404 10411 10415 10418 10422 10421 10421 10420 10417 10415 10411 10408 10406 10401 10399 10398 10399 10399 10399 10400 10404 10407 10412 10419 10425 10433 10441 10448
10396 10374 10358 10348 10343 10341 10337 10334 10337 10343 10351 10362 10371 10375 10381 10389 10394 10398 10405 10414 10420 10426 10430 10431 10429 10427 10424 10420 10419 10417 10415 10411 10408 10405 10406 10405 10405 10405 10410 10410 10412 10417 10422 10429 10434 10441 10449
10412 10394 10378 10371 10368 10366 10364 10364 10364 10366 10372 10377 10389 10391 10395 10396 10400 10408 10413 10423 10431 10434 10438 10439 10435 10430 10430 10427 10425 10423 10421 10418 10417 10414 10411 10413 10414 10415 10416 10418 10421 10425 10428 10434 10440 10445 10451
10427 10411 10404 10398 10396 10392 10387 10389 10392 10392 10392 10393 10399 10405 10405 10408 10412 10415 10424 10434 10439 10442 10443 10445 10442 10436 10436 10436 10435 10434 10432 10428 10427 10423 10420 10421 10419 10420 10423 10427 10430 10433 10436 10440 10442 10446 10451
10438 10431 10426 10422 10418 10415 10412 10412 10411 10414 10417 10414 10413 10414 10419 10421 10423 10427 10435 10443 10448 10449 10451 10451 10449 10446 10443 10443 10442 10440 10438 10438 10437 10438 10437 10437 10438 10441 10443 10440 10442 10443 10443 10444 10446 10449 10452
10460 10452 10451 10446 10441 10438 10434 10431 10428 10428 10430 10429 10429 10428 10431 10434 10434 10440 10446 10452 10456 10457 10457 10458 10456 10454 10454 10451 10453 10451 10449 10447 10447 10447 10445 10446 10447 10449 10450 10449 10452 10454 10454 10454 10455 10457 10460
10494 10484 10471 10466 10461 10457 10453 10450 10448 10446 10444 10445 10445 10446 10445 10445 10448 10452 10457 10461 10464 10465 10465 10465 10464 10464 10464 10462 10463 10463 10459 10459 10461 10460 10461 10460 10460 10458 10459 10459 10461 10460 10460 10461 10462 10462 10465
10508 10492 10490 10484 10479 10472 10467 10467 10463 10459 10455 10455 10456 10457 10456 10458 10462 10466 10469 10471 10472 10474 10476 10474 10473 10474 10474 10472 10473 10473 10472 10472 10472 10472 10473 10473 10471 10472 10472 10471 10471 10472 10471 10472 10471 10470 10470
10519 10514 10502 10496 10490 10486 10484 10480 10476 10471 10469 10466 10466 10466 10466 10465 10472 10476 10478 10480 10482 10483 10484 10484 10483 10482 10482 10482 10483 10482 10482 10483 10484 10484 10484 10484 10484 10483 10483 10482 10481 10480 10479 10479 10479 10479 10478
10524 10516 10510 10505 10498 10494 10492 10489 10487 10482 10478 10477 10477 10476 10476 10474 10479 10484 10485 10487 10489 10490 10492 10492 10491 10490 10490 10490 10491 10491 10491 10492 10492 10492 10491 10492 10491 10490 10488 10487 10487 10485 10487 10484 10484 10482 10482
10530 10521 10514 10509 10508 10506 10501 10500 10498 10496 10491 10489 10487 10484 10485 10483 10485 10489 10492 10495 10495 10495 10497 10498 10498 10496 10496 10496 10496 10497 10497 10498 10498 10498 10496 10496 10496 10495 10494 10493 10491 10489 10487 10485 10484 10481 10480